Time,TemperatureF,DewpointF,PressureIn,WindDirection,WindDirectionDegrees,WindSpeedMPH,WindSpeedGustMPH,Humidity,HourlyPrecipIn,Conditions,Clouds,dailyrainin,SoftwareType,DateUTC
2013-01-13 00:00:00,33.8,23.3,30.05,North,3,1.0,5.0,65,0.00,,,0.00,Wunderground v.1.15,2013-01-13 08:00:00,
2013-01-13 00:10:00,33.2,23.4,30.05,North,3,0.0,5.0,67,0.00,,,0.00,Wunderground v.1.15,2013-01-13 08:10:00,
2013-01-13 00:20:00,32.1,23.4,30.05,North,3,0.0,3.0,70,0.00,,,0.00,Wunderground v.1.15,2013-01-13 08:20:00,
2013-01-13 00:30:00,31.5,23.5,30.05,North,3,0.0,3.0,72,0.00,,,0.00,Wunderground v.1.15,2013-01-13 08:30:00,
2013-01-13 00:40:00,31.3,23.6,30.05,North,3,0.0,3.0,73,0.00,,,0.00,Wunderground v.1.15,2013-01-13 08:40:00,
2013-01-13 00:45:00,31.2,23.5,30.05,North,3,0.0,3.0,73,0.00,,,0.00,Wunderground v.1.15,2013-01-13 08:45:00,
2013-01-13 00:55:00,31.5,23.8,30.06,North,3,1.0,1.0,73,0.00,,,0.00,Wunderground v.1.15,2013-01-13 08:55:00,
2013-01-13 01:00:00,31.5,24.2,30.06,North,3,1.0,1.0,74,0.00,,,0.00,Wunderground v.1.15,2013-01-13 09:00:00,
2013-01-13 01:10:00,31.3,24.0,30.06,North,3,0.0,0.0,74,0.00,,,0.00,Wunderground v.1.15,2013-01-13 09:10:00,
2013-01-13 01:20:00,31.2,23.9,30.06,North,3,0.0,3.0,74,0.00,,,0.00,Wunderground v.1.15,2013-01-13 09:20:00,
2013-01-13 01:25:00,31.3,24.0,30.06,North,3,0.0,3.0,74,0.00,,,0.00,Wunderground v.1.15,2013-01-13 09:25:00,
2013-01-13 01:35:00,31.3,24.0,30.06,North,3,1.0,3.0,74,0.00,,,0.00,Wunderground v.1.15,2013-01-13 09:35:00,
2013-01-13 01:40:00,31.3,24.3,30.06,North,3,1.0,1.0,75,0.00,,,0.00,Wunderground v.1.15,2013-01-13 09:40:00,
2013-01-13 01:50:00,31.2,24.2,30.06,North,3,0.0,2.0,75,0.00,,,0.00,Wunderground v.1.15,2013-01-13 09:50:00,
2013-01-13 02:00:00,31.5,24.2,30.06,North,3,0.0,2.0,74,0.00,,,0.00,Wunderground v.1.15,2013-01-13 10:00:00,
2013-01-13 02:05:00,31.6,23.9,30.06,North,3,0.0,2.0,73,0.00,,,0.00,Wunderground v.1.15,2013-01-13 10:05:00,
2013-01-13 02:15:00,31.6,23.9,30.06,North,3,0.0,2.0,73,0.00,,,0.00,Wunderground v.1.15,2013-01-13 10:15:00,
2013-01-13 02:20:00,31.6,23.9,30.06,North,3,1.0,1.0,73,0.00,,,0.00,Wunderground v.1.15,2013-01-13 10:20:00,
2013-01-13 02:30:00,31.8,23.8,30.07,North,3,0.0,2.0,72,0.00,,,0.00,Wunderground v.1.15,2013-01-13 10:30:00,
2013-01-13 02:40:00,32.4,23.7,30.07,North,3,0.0,2.0,70,0.00,,,0.00,Wunderground v.1.15,2013-01-13 10:40:00,
2013-01-13 02:50:00,32.4,23.7,30.07,North,3,1.0,1.0,70,0.00,,,0.00,Wunderground v.1.15,2013-01-13 10:50:00,
2013-01-13 02:55:00,32.2,23.5,30.07,North,3,0.0,2.0,70,0.00,,,0.00,Wunderground v.1.15,2013-01-13 10:55:00,
2013-01-13 03:05:00,32.1,23.8,30.07,North,3,1.0,2.0,71,0.00,,,0.00,Wunderground v.1.15,2013-01-13 11:05:00,
2013-01-13 03:10:00,32.1,23.4,30.07,North,3,1.0,1.0,70,0.00,,,0.00,Wunderground v.1.15,2013-01-13 11:10:00,
2013-01-13 03:20:00,32.1,23.4,30.07,North,3,0.0,3.0,70,0.00,,,0.00,Wunderground v.1.15,2013-01-13 11:20:00,
2013-01-13 03:25:00,32.1,23.4,30.08,North,3,1.0,3.0,70,0.00,,,0.00,Wunderground v.1.15,2013-01-13 11:25:00,
2013-01-13 03:35:00,32.1,23.4,30.08,North,3,1.0,3.0,70,0.00,,,0.00,Wunderground v.1.15,2013-01-13 11:35:00,
2013-01-13 03:40:00,32.1,23.4,30.08,North,3,1.0,3.0,70,0.00,,,0.00,Wunderground v.1.15,2013-01-13 11:40:00,
2013-01-13 03:50:00,31.8,23.5,30.08,North,3,1.0,2.0,71,0.00,,,0.00,Wunderground v.1.15,2013-01-13 11:50:00,
2013-01-13 03:55:00,31.6,23.9,30.07,North,3,1.0,2.0,73,0.00,,,0.00,Wunderground v.1.15,2013-01-13 11:55:00,
2013-01-13 04:05:00,31.8,23.5,30.07,North,359,2.0,2.0,71,0.00,,,0.00,Wunderground v.1.15,2013-01-13 12:05:00,
2013-01-13 04:10:00,31.8,24.1,30.07,North,359,1.0,1.0,73,0.00,,,0.00,Wunderground v.1.15,2013-01-13 12:10:00,
2013-01-13 04:20:00,31.0,24.0,30.07,North,359,0.0,5.0,75,0.00,,,0.00,Wunderground v.1.15,2013-01-13 12:20:00,
2013-01-13 04:30:00,30.6,23.9,30.07,North,359,0.0,5.0,76,0.00,,,0.00,Wunderground v.1.15,2013-01-13 12:30:00,
2013-01-13 04:35:00,30.4,23.7,30.07,North,359,0.0,5.0,76,0.00,,,0.00,Wunderground v.1.15,2013-01-13 12:35:00,
2013-01-13 04:45:00,30.7,23.4,30.08,North,359,0.0,5.0,74,0.00,,,0.00,Wunderground v.1.15,2013-01-13 12:45:00,
2013-01-13 04:50:00,30.7,23.1,30.08,North,359,0.0,3.0,73,0.00,,,0.00,Wunderground v.1.15,2013-01-13 12:50:00,
2013-01-13 05:00:00,31.0,22.7,30.07,WNW,294,0.0,3.0,71,0.00,,,0.00,Wunderground v.1.15,2013-01-13 13:00:00,
2013-01-13 05:10:00,31.8,23.1,30.07,NNW,346,1.0,1.0,70,0.00,,,0.00,Wunderground v.1.15,2013-01-13 13:10:00,
2013-01-13 05:15:00,31.9,22.5,30.07,NNW,346,1.0,6.0,68,0.00,,,0.00,Wunderground v.1.15,2013-01-13 13:15:00,
2013-01-13 05:25:00,32.4,21.6,30.09,NNW,342,2.0,6.0,64,0.00,,,0.00,Wunderground v.1.15,2013-01-13 13:25:00,
2013-01-13 05:30:00,32.8,20.8,30.09,NW,320,3.0,3.0,61,0.00,,,0.00,Wunderground v.1.15,2013-01-13 13:30:00,
2013-01-13 05:40:00,33.4,19.8,30.08,NNW,340,3.0,6.0,57,0.00,,,0.00,Wunderground v.1.15,2013-01-13 13:40:00,
2013-01-13 05:50:00,33.7,19.2,30.08,NNW,343,3.0,3.0,55,0.00,,,0.00,Wunderground v.1.15,2013-01-13 13:50:00,
2013-01-13 05:55:00,33.5,19.5,30.09,NNW,346,2.0,7.0,56,0.00,,,0.00,Wunderground v.1.15,2013-01-13 13:55:00,
2013-01-13 06:05:00,33.2,19.2,30.09,NNW,342,3.0,7.0,56,0.00,,,0.00,Wunderground v.1.15,2013-01-13 14:05:00,
2013-01-13 06:10:00,33.4,18.9,30.09,NW,320,4.0,4.0,55,0.00,,,0.00,Wunderground v.1.15,2013-01-13 14:10:00,
2013-01-13 06:19:00,33.5,18.6,30.09,NNW,335,3.0,3.0,54,0.00,,,0.00,Wunderground v.1.15,2013-01-13 14:19:00,
2013-01-13 06:25:00,33.5,18.6,30.09,North,349,3.0,10.0,54,0.00,,,0.00,Wunderground v.1.15,2013-01-13 14:25:00,
2013-01-13 06:35:00,33.5,18.2,30.09,North,350,4.0,10.0,53,0.00,,,0.00,Wunderground v.1.15,2013-01-13 14:35:00,
2013-01-13 06:45:00,33.2,18.3,30.10,NW,325,4.0,10.0,54,0.00,,,0.00,Wunderground v.1.15,2013-01-13 14:45:00,
2013-01-13 06:55:00,33.2,17.9,30.10,NNW,329,3.0,10.0,53,0.00,,,0.00,Wunderground v.1.15,2013-01-13 14:55:00,
2013-01-13 07:05:00,33.2,17.9,30.10,NNW,330,2.0,10.0,53,0.00,,,0.00,Wunderground v.1.15,2013-01-13 15:05:00,
2013-01-13 07:15:00,32.8,18.0,30.10,NE,54,2.0,10.0,54,0.00,,,0.00,Wunderground v.1.15,2013-01-13 15:15:00,
2013-01-13 07:25:00,32.8,17.5,30.10,WNW,296,3.0,10.0,53,0.00,,,0.00,Wunderground v.1.15,2013-01-13 15:25:00,
2013-01-13 07:35:00,33.1,17.4,30.10,NW,322,2.0,10.0,52,0.00,,,0.00,Wunderground v.1.15,2013-01-13 15:35:00,
2013-01-13 07:40:00,33.2,17.5,30.11,NW,312,3.0,10.0,52,0.00,,,0.00,Wunderground v.1.15,2013-01-13 15:40:00,
2013-01-13 07:50:00,33.2,17.5,30.11,NNW,332,2.0,7.0,52,0.00,,,0.00,Wunderground v.1.15,2013-01-13 15:50:00,
2013-01-13 08:00:00,34.1,17.8,30.11,North,352,3.0,7.0,51,0.00,,,0.00,Wunderground v.1.15,2013-01-13 16:00:00,
2013-01-13 08:05:00,34.6,18.8,30.11,NW,311,3.0,7.0,52,0.00,,,0.00,Wunderground v.1.15,2013-01-13 16:05:00,
2013-01-13 08:15:00,35.3,18.5,30.11,NW,308,2.0,8.0,50,0.00,,,0.00,Wunderground v.1.15,2013-01-13 16:15:00,
2013-01-13 08:25:00,35.8,19.4,30.11,North,7,3.0,8.0,51,0.00,,,0.00,Wunderground v.1.15,2013-01-13 16:25:00,
2013-01-13 08:30:00,35.9,19.0,30.11,NW,326,3.0,8.0,50,0.00,,,0.00,Wunderground v.1.15,2013-01-13 16:30:00,
2013-01-13 08:40:00,36.3,18.5,30.11,North,352,3.0,3.0,48,0.00,,,0.00,Wunderground v.1.15,2013-01-13 16:40:00,
2013-01-13 08:45:00,36.6,18.7,30.11,North,354,2.0,8.0,48,0.00,,,0.00,Wunderground v.1.15,2013-01-13 16:45:00,
2013-01-13 08:54:00,37.2,18.3,30.12,NNW,337,3.0,8.0,46,0.00,,,0.00,Wunderground v.1.15,2013-01-13 16:54:00,
2013-01-13 09:00:00,37.6,18.7,30.12,NNW,343,2.0,8.0,46,0.00,,,0.00,Wunderground v.1.15,2013-01-13 17:00:00,
2013-01-13 09:10:00,38.3,18.8,30.11,NNW,342,3.0,8.0,45,0.00,,,0.00,Wunderground v.1.15,2013-01-13 17:10:00,
2013-01-13 09:20:00,39.3,19.2,30.11,NNW,330,2.0,6.0,44,0.00,,,0.00,Wunderground v.1.15,2013-01-13 17:20:00,
2013-01-13 09:25:00,39.8,19.6,30.11,NW,318,2.0,6.0,44,0.00,,,0.00,Wunderground v.1.15,2013-01-13 17:25:00,
2013-01-13 09:35:00,40.9,20.6,30.11,NW,318,1.0,6.0,44,0.00,,,0.00,Wunderground v.1.15,2013-01-13 17:35:00,
2013-01-13 09:40:00,41.2,20.4,30.13,NNW,335,2.0,6.0,43,0.00,,,0.00,Wunderground v.1.15,2013-01-13 17:40:00,
2013-01-13 09:50:00,41.3,22.1,30.13,North,357,2.0,5.0,46,0.00,,,0.00,Wunderground v.1.15,2013-01-13 17:50:00,
2013-01-13 10:00:00,41.1,20.8,30.12,North,349,3.0,3.0,44,0.00,,,0.00,Wunderground v.1.15,2013-01-13 18:00:00,
2013-01-13 10:05:00,41.5,20.6,30.12,NW,318,2.0,6.0,43,0.00,,,0.00,Wunderground v.1.15,2013-01-13 18:05:00,
2013-01-13 10:15:00,42.1,21.7,30.12,NW,322,2.0,7.0,44,0.00,,,0.00,Wunderground v.1.15,2013-01-13 18:15:00,
2013-01-13 10:20:00,42.1,21.7,30.12,NW,323,2.0,7.0,44,0.00,,,0.00,Wunderground v.1.15,2013-01-13 18:20:00,
2013-01-13 10:30:00,42.2,22.9,30.12,NW,326,2.0,7.0,46,0.00,,,0.00,Wunderground v.1.15,2013-01-13 18:30:00,
2013-01-13 10:35:00,42.5,21.0,30.12,NW,326,1.0,7.0,42,0.00,,,0.00,Wunderground v.1.15,2013-01-13 18:35:00,
2013-01-13 10:44:00,42.5,20.4,30.11,North,353,2.0,7.0,41,0.00,,,0.00,Wunderground v.1.15,2013-01-13 18:44:00,
2013-01-13 10:50:00,42.5,22.1,30.11,NNW,332,2.0,2.0,44,0.00,,,0.00,Wunderground v.1.15,2013-01-13 18:50:00,
2013-01-13 11:00:00,42.5,21.0,30.10,NNW,343,3.0,3.0,42,0.00,,,0.00,Wunderground v.1.15,2013-01-13 19:00:00,
2013-01-13 11:10:00,42.6,21.1,30.10,NW,319,3.0,3.0,42,0.00,,,0.00,Wunderground v.1.15,2013-01-13 19:10:00,
2013-01-13 11:15:00,42.9,21.4,30.10,North,359,3.0,10.0,42,0.00,,,0.00,Wunderground v.1.15,2013-01-13 19:15:00,
2013-01-13 11:25:00,43.3,21.1,30.09,West,281,2.0,5.0,41,0.00,,,0.00,Wunderground v.1.15,2013-01-13 19:25:00,
2013-01-13 11:35:00,43.3,21.7,30.09,North,0,3.0,10.0,42,0.00,,,0.00,Wunderground v.1.15,2013-01-13 19:35:00,
2013-01-13 11:45:00,43.6,21.4,30.09,NNW,329,3.0,10.0,41,0.00,,,0.00,Wunderground v.1.15,2013-01-13 19:45:00,
2013-01-13 11:55:00,44.2,22.5,30.08,NNW,347,2.0,5.0,42,0.00,,,0.00,Wunderground v.1.15,2013-01-13 19:55:00,
2013-01-13 12:00:00,44.3,22.6,30.08,NW,308,2.0,2.0,42,0.00,,,0.00,Wunderground v.1.15,2013-01-13 20:00:00,
2013-01-13 12:10:00,44.6,19.9,30.07,NNW,329,3.0,3.0,37,0.00,,,0.00,Wunderground v.1.15,2013-01-13 20:10:00,
2013-01-13 12:20:00,45.1,16.2,30.07,NW,309,4.0,8.0,31,0.00,,,0.00,Wunderground v.1.15,2013-01-13 20:20:00,
2013-01-13 12:30:00,44.9,16.0,30.07,NNW,335,5.0,8.0,31,0.00,,,0.00,Wunderground v.1.15,2013-01-13 20:30:00,
2013-01-13 12:40:00,45.1,16.2,30.07,NW,308,4.0,8.0,31,0.00,,,0.00,Wunderground v.1.15,2013-01-13 20:40:00,
2013-01-13 12:45:00,44.8,16.7,30.07,WNW,302,4.0,13.0,32,0.00,,,0.00,Wunderground v.1.15,2013-01-13 20:45:00,
2013-01-13 12:55:00,45.1,17.0,30.07,North,6,3.0,13.0,32,0.00,,,0.00,Wunderground v.1.15,2013-01-13 20:55:00,
2013-01-13 13:00:00,45.2,17.0,30.07,NW,326,3.0,13.0,32,0.00,,,0.00,Wunderground v.1.15,2013-01-13 21:00:00,
2013-01-13 13:10:00,44.8,17.4,30.06,NW,326,4.0,13.0,33,0.00,,,0.00,Wunderground v.1.15,2013-01-13 21:10:00,
2013-01-13 13:15:00,44.8,17.4,30.06,NNW,329,5.0,13.0,33,0.00,,,0.00,Wunderground v.1.15,2013-01-13 21:15:00,
2013-01-13 13:25:00,44.8,16.0,30.06,WNW,294,5.0,13.0,31,0.00,,,0.00,Wunderground v.1.15,2013-01-13 21:25:00,
2013-01-13 13:30:00,44.5,13.4,30.06,WNW,294,5.0,13.0,28,0.00,,,0.00,Wunderground v.1.15,2013-01-13 21:30:00,
2013-01-13 13:40:00,44.6,14.3,30.06,North,1,5.0,5.0,29,0.00,,,0.00,Wunderground v.1.15,2013-01-13 21:40:00,
2013-01-13 13:45:00,44.8,15.2,30.06,North,0,5.0,14.0,30,0.00,,,0.00,Wunderground v.1.15,2013-01-13 21:45:00,
2013-01-13 13:55:00,45.1,15.5,30.06,NW,311,4.0,14.0,30,0.00,,,0.00,Wunderground v.1.15,2013-01-13 21:55:00,
2013-01-13 14:00:00,45.4,15.7,30.06,NW,315,4.0,14.0,30,0.00,,,0.00,Wunderground v.1.15,2013-01-13 22:00:00,
2013-01-13 14:10:00,45.2,17.0,30.05,NNW,343,3.0,14.0,32,0.00,,,0.00,Wunderground v.1.15,2013-01-13 22:10:00,
2013-01-13 14:15:00,45.2,17.0,30.05,North,359,4.0,14.0,32,0.00,,,0.00,Wunderground v.1.15,2013-01-13 22:15:00,
2013-01-13 14:24:00,44.8,18.8,30.05,NW,326,4.0,5.0,35,0.00,,,0.00,Wunderground v.1.15,2013-01-13 22:24:00,
2013-01-13 14:30:00,44.6,19.3,30.05,NNE,18,4.0,4.0,36,0.00,,,0.00,Wunderground v.1.15,2013-01-13 22:30:00,
2013-01-13 14:40:00,44.3,19.6,30.05,NW,315,3.0,3.0,37,0.00,,,0.00,Wunderground v.1.15,2013-01-13 22:40:00,
2013-01-13 14:50:00,43.8,19.2,30.05,NW,316,3.0,13.0,37,0.00,,,0.00,Wunderground v.1.15,2013-01-13 22:50:00,
2013-01-13 15:00:00,43.6,21.4,30.05,West,281,4.0,4.0,41,0.00,,,0.00,Wunderground v.1.15,2013-01-13 23:00:00,
2013-01-13 15:09:00,43.5,22.5,30.05,North,356,3.0,13.0,43,0.00,,,0.00,Wunderground v.1.15,2013-01-13 23:09:00,
2013-01-13 15:15:00,43.1,21.5,30.05,NNW,330,4.0,13.0,42,0.00,,,0.00,Wunderground v.1.15,2013-01-13 23:15:00,
2013-01-13 15:25:00,42.6,19.9,30.05,NNW,347,4.0,11.0,40,0.00,,,0.00,Wunderground v.1.15,2013-01-13 23:25:00,
2013-01-13 15:34:00,42.5,21.5,30.05,NW,322,2.0,11.0,43,0.00,,,0.00,Wunderground v.1.15,2013-01-13 23:34:00,
2013-01-13 15:40:00,42.3,20.2,30.05,NNW,343,3.0,11.0,41,0.00,,,0.00,Wunderground v.1.15,2013-01-13 23:40:00,
2013-01-13 15:49:00,42.3,20.8,30.05,North,0,3.0,3.0,42,0.00,,,0.00,Wunderground v.1.15,2013-01-13 23:49:00,
2013-01-13 15:55:00,42.1,21.7,30.05,NNW,332,3.0,12.0,44,0.00,,,0.00,Wunderground v.1.15,2013-01-13 23:55:00,
2013-01-13 16:04:00,41.9,23.1,30.05,NW,315,2.0,12.0,47,0.00,,,0.00,Wunderground v.1.15,2013-01-14 00:04:00,
2013-01-13 16:10:00,41.9,23.6,30.05,North,352,4.0,12.0,48,0.00,,,0.00,Wunderground v.1.15,2013-01-14 00:10:00,
2013-01-13 16:15:00,41.9,23.6,30.05,North,354,4.0,12.0,48,0.00,,,0.00,Wunderground v.1.15,2013-01-14 00:15:00,
2013-01-13 16:25:00,41.6,23.8,30.05,NW,316,3.0,12.0,49,0.00,,,0.00,Wunderground v.1.15,2013-01-14 00:25:00,
2013-01-13 16:30:00,41.3,24.0,30.05,NNW,333,2.0,12.0,50,0.00,,,0.00,Wunderground v.1.15,2013-01-14 00:30:00,
2013-01-13 16:40:00,41.1,24.3,30.05,NE,41,2.0,2.0,51,0.00,,,0.00,Wunderground v.1.15,2013-01-14 00:40:00,
2013-01-13 16:45:00,40.6,23.9,30.05,North,359,1.0,10.0,51,0.00,,,0.00,Wunderground v.1.15,2013-01-14 00:45:00,
2013-01-13 16:54:00,40.6,23.4,30.05,NNW,336,3.0,10.0,50,0.00,,,0.00,Wunderground v.1.15,2013-01-14 00:54:00,
2013-01-13 17:00:00,40.3,23.1,30.05,North,359,2.0,10.0,50,0.00,,,0.00,Wunderground v.1.15,2013-01-14 01:00:00,
2013-01-13 17:10:00,39.8,21.2,30.05,NW,318,3.0,3.0,47,0.00,,,0.00,Wunderground v.1.15,2013-01-14 01:10:00,
2013-01-13 17:20:00,39.8,18.0,30.05,North,6,4.0,4.0,41,0.00,,,0.00,Wunderground v.1.15,2013-01-14 01:20:00,
2013-01-13 17:25:00,39.9,18.1,30.05,North,359,3.0,11.0,41,0.00,,,0.00,Wunderground v.1.15,2013-01-14 01:25:00,
2013-01-13 17:35:00,39.5,17.7,30.05,NW,305,2.0,11.0,41,0.00,,,0.00,Wunderground v.1.15,2013-01-14 01:35:00,
2013-01-13 17:40:00,39.3,17.0,30.05,NNE,17,2.0,11.0,40,0.00,,,0.00,Wunderground v.1.15,2013-01-14 01:40:00,
2013-01-13 17:49:00,38.9,19.3,30.05,North,0,2.0,2.0,45,0.00,,,0.00,Wunderground v.1.15,2013-01-14 01:49:00,
2013-01-13 17:55:00,38.5,18.4,30.05,NW,325,2.0,11.0,44,0.00,,,0.00,Wunderground v.1.15,2013-01-14 01:55:00,
2013-01-13 18:05:00,38.0,19.0,30.05,NW,316,1.0,11.0,46,0.00,,,0.00,Wunderground v.1.15,2013-01-14 02:05:00,
2013-01-13 18:15:00,37.8,20.3,30.06,NW,316,1.0,7.0,49,0.00,,,0.00,Wunderground v.1.15,2013-01-14 02:15:00,
2013-01-13 18:20:00,37.3,20.8,30.06,NW,316,1.0,7.0,51,0.00,,,0.00,Wunderground v.1.15,2013-01-14 02:20:00,
2013-01-13 18:30:00,36.6,22.4,30.06,NW,316,0.0,7.0,56,0.00,,,0.00,Wunderground v.1.15,2013-01-14 02:30:00,
2013-01-13 18:40:00,35.9,23.0,30.06,NW,316,0.0,7.0,59,0.00,,,0.00,Wunderground v.1.15,2013-01-14 02:40:00,
2013-01-13 18:50:00,36.5,24.3,30.06,NW,318,1.0,1.0,61,0.00,,,0.00,Wunderground v.1.15,2013-01-14 02:50:00,
2013-01-13 19:00:00,35.9,24.5,30.06,NW,318,0.0,2.0,63,0.00,,,0.00,Wunderground v.1.15,2013-01-14 03:00:00,
2013-01-13 19:05:00,35.8,24.4,30.06,NW,318,0.0,2.0,63,0.00,,,0.00,Wunderground v.1.15,2013-01-14 03:05:00,
2013-01-13 19:15:00,35.2,24.6,30.06,NW,318,0.0,6.0,65,0.00,,,0.00,Wunderground v.1.15,2013-01-14 03:15:00,
2013-01-13 19:20:00,35.2,25.3,30.06,NW,318,0.0,6.0,67,0.00,,,0.00,Wunderground v.1.15,2013-01-14 03:20:00,
2013-01-13 19:30:00,34.7,25.2,30.05,NW,318,1.0,1.0,68,0.00,,,0.00,Wunderground v.1.15,2013-01-14 03:30:00,
2013-01-13 19:40:00,34.6,25.8,30.06,NW,318,0.0,6.0,70,0.00,,,0.00,Wunderground v.1.15,2013-01-14 03:40:00,
2013-01-13 19:49:00,34.3,25.5,30.06,NW,318,0.0,2.0,70,0.00,,,0.00,Wunderground v.1.15,2013-01-14 03:49:00,
2013-01-13 19:55:00,34.0,25.6,30.06,NW,318,0.0,2.0,71,0.00,,,0.00,Wunderground v.1.15,2013-01-14 03:55:00,
2013-01-13 20:05:00,33.2,25.1,30.06,NW,318,0.0,2.0,72,0.00,,,0.00,Wunderground v.1.15,2013-01-14 04:05:00,
2013-01-13 20:15:00,32.8,25.1,30.06,NW,318,0.0,2.0,73,0.00,,,0.00,Wunderground v.1.15,2013-01-14 04:15:00,
2013-01-13 20:20:00,32.8,25.4,30.06,NW,318,0.0,1.0,74,0.00,,,0.00,Wunderground v.1.15,2013-01-14 04:20:00,
2013-01-13 20:30:00,32.5,24.8,30.06,NW,318,0.0,1.0,73,0.00,,,0.00,Wunderground v.1.15,2013-01-14 04:30:00,
2013-01-13 20:35:00,32.4,25.0,30.06,NW,318,0.0,1.0,74,0.00,,,0.00,Wunderground v.1.15,2013-01-14 04:35:00,
2013-01-13 20:45:00,32.8,23.7,30.06,NW,318,0.0,3.0,69,0.00,,,0.00,Wunderground v.1.15,2013-01-14 04:45:00,
2013-01-13 20:50:00,32.8,23.7,30.06,NW,318,0.0,3.0,69,0.00,,,0.00,Wunderground v.1.15,2013-01-14 04:50:00,
2013-01-13 21:00:00,32.5,23.5,30.06,NW,318,0.0,3.0,69,0.00,,,0.00,Wunderground v.1.15,2013-01-14 05:00:00,
2013-01-13 21:05:00,32.4,23.4,30.06,NW,318,0.0,3.0,69,0.00,,,0.00,Wunderground v.1.15,2013-01-14 05:05:00,
2013-01-13 21:15:00,32.1,23.1,30.06,NW,318,0.0,3.0,69,0.00,,,0.00,Wunderground v.1.15,2013-01-14 05:15:00,
2013-01-13 21:19:00,32.1,22.7,30.06,NW,318,0.0,2.0,68,0.00,,,0.00,Wunderground v.1.15,2013-01-14 05:19:00,
2013-01-13 21:25:00,32.2,22.8,30.05,NW,318,0.0,2.0,68,0.00,,,0.00,Wunderground v.1.15,2013-01-14 05:25:00,
2013-01-13 21:30:00,32.2,22.5,30.05,NW,318,0.0,2.0,67,0.00,,,0.00,Wunderground v.1.15,2013-01-14 05:30:00,
2013-01-13 21:40:00,32.1,22.4,30.06,NW,318,0.0,2.0,67,0.00,,,0.00,Wunderground v.1.15,2013-01-14 05:40:00,
2013-01-13 21:45:00,31.9,22.2,30.06,NW,318,0.0,3.0,67,0.00,,,0.00,Wunderground v.1.15,2013-01-14 05:45:00,
2013-01-13 21:54:00,31.9,21.8,30.05,NW,318,0.0,3.0,66,0.00,,,0.00,Wunderground v.1.15,2013-01-14 05:54:00,
2013-01-13 22:00:00,31.6,21.9,30.05,NW,318,0.0,3.0,67,0.00,,,0.00,Wunderground v.1.15,2013-01-14 06:00:00,
2013-01-13 22:10:00,31.6,21.5,30.06,NW,318,0.0,3.0,66,0.00,,,0.00,Wunderground v.1.15,2013-01-14 06:10:00,
2013-01-13 22:20:00,31.5,21.8,30.06,NW,318,0.0,2.0,67,0.00,,,0.00,Wunderground v.1.15,2013-01-14 06:20:00,
2013-01-13 22:30:00,31.0,21.3,30.06,NW,318,0.0,2.0,67,0.00,,,0.00,Wunderground v.1.15,2013-01-14 06:30:00,
2013-01-13 22:40:00,31.5,21.1,30.06,NW,318,1.0,1.0,65,0.00,,,0.00,Wunderground v.1.15,2013-01-14 06:40:00,
2013-01-13 22:49:00,31.8,20.6,30.06,NW,318,1.0,1.0,63,0.00,,,0.00,Wunderground v.1.15,2013-01-14 06:49:00,
2013-01-13 22:55:00,31.9,20.0,30.07,NW,315,1.0,3.0,61,0.00,,,0.00,Wunderground v.1.15,2013-01-14 06:55:00,
2013-01-13 23:05:00,31.9,20.0,30.07,NW,315,0.0,3.0,61,0.00,,,0.00,Wunderground v.1.15,2013-01-14 07:05:00,
2013-01-13 23:10:00,32.1,19.4,30.07,NW,315,0.0,3.0,59,0.00,,,0.00,Wunderground v.1.15,2013-01-14 07:10:00,
2013-01-13 23:20:00,31.9,20.0,30.07,NW,315,0.0,5.0,61,0.00,,,0.00,Wunderground v.1.15,2013-01-14 07:20:00,
2013-01-13 23:25:00,31.9,20.3,30.07,NW,315,0.0,5.0,62,0.00,,,0.00,Wunderground v.1.15,2013-01-14 07:25:00,
2013-01-13 23:35:00,32.4,20.0,30.07,NW,316,1.0,5.0,60,0.00,,,0.00,Wunderground v.1.15,2013-01-14 07:35:00,
2013-01-13 23:40:00,32.5,20.5,30.08,NW,316,1.0,1.0,61,0.00,,,0.00,Wunderground v.1.15,2013-01-14 07:40:00,
2013-01-13 23:50:00,32.2,20.2,30.08,NW,316,0.0,3.0,61,0.00,,,0.00,Wunderground v.1.15,2013-01-14 07:50:00,
2013-01-13 23:55:00,31.9,20.3,30.08,NW,316,0.0,3.0,62,0.00,,,0.00,Wunderground v.1.15,2013-01-14 07:55:00,